Torna al catalogo

SL-12 R/B(2)

AttivoGEO
NORAD 11862·ROCKET BODY·🇷🇺 Russia

Lanciato Jun 14, 1980 da Baikonur Cosmodrome

Loading…

TLE

AggiornatoSource: Space-Track

Epoca: Sep 14, 2026, 08:33 UTC

1 11862U 80049F   26257.35653838 -.00000179  00000-0  00000-0 0  9990
2 11862   7.4465 295.4146 0028413 220.5431 302.0643  0.97940997121086

Traccia SL-12 R/B(2) in tempo reale con AllMySat

Download on the App Store